Location: Hains Lake
(37.8540°N, 99.8578°W)
Time: 22:33:29
(UTC+00:00)

deb Explorer IX - Pass Details

Date: 27 April 2021
Orbit: 541 x 1098 km, 38.8° (Epoch: 13 May)

Event Time Altitude Azimuth Distance (km) Brightness Sun altitude
Rises 16:58:26 0° 269° (W) 2,866 ? 57.7°
Reaches altitude 10° 17:02:00 10° 239° (WSW) 2,063 ? 58.2°
Maximum altitude 17:03:56 12° 215° (SW) 1,969 ? 58.5°
Drops below altitude 10° 17:05:59 10° 191° (S) 2,194 ? 58.8°
Sets 17:10:05 0° 162° (SSE) 3,265 ? 59.4°
